• In Schweiz
  • Länderverzeichnis
  • Für 7 Tage
  • Wassertemperatur
  • Satellitenkarten
  • Wetterkarte
  • Widgets
  • user-avatar
    Anmelden

    Stündliche Wetter Rivas

    Heute, 16 Oktober, Dienstag

    Zeit Temperatur Niederschläge Wind Luftdruck Luftfeuchtigkeit
    00:00 +26°C° 0.7 mm 4 m/S 751 mmHg 93%
    01:00 +26°C° 0.7 mm 3 m/S 751 mmHg 94%
    02:00 +26°C° 0.7 mm 3 m/S 751 mmHg 94%
    03:00 +26°C° 0.7 mm 3 m/S 751 mmHg 94%
    04:00 +26°C° 1.1 mm 3 m/S 751 mmHg 94%
    05:00 +26°C° 1.1 mm 3 m/S 751 mmHg 95%
    06:00 +26°C° 1.1 mm 3 m/S 751 mmHg 95%
    07:00 +26°C° 1.5 mm 3 m/S 752 mmHg 94%
    08:00 +27°C° 1.5 mm 3 m/S 752 mmHg 93%
    09:00 +27°C° 1.5 mm 3 m/S 752 mmHg 91%
    10:00 +27°C° 1.9 mm 3 m/S 752 mmHg 91%
    11:00 +28°C° 1.9 mm 3 m/S 752 mmHg 91%
    12:00 +28°C° 1.9 mm 2 m/S 751 mmHg 90%
    13:00 +27°C° 2 mm 2 m/S 751 mmHg 91%
    14:00 +27°C° 2 mm 3 m/S 750 mmHg 93%
    15:00 +27°C° 2 mm 3 m/S 749 mmHg 94%
    16:00 +27°C° 2.1 mm 2 m/S 750 mmHg 94%
    17:00 +26°C° 2.1 mm 2 m/S 750 mmHg 94%
    18:00 +26°C° 2.1 mm 2 m/S 750 mmHg 95%
    19:00 +26°C° 2.7 mm 2 m/S 751 mmHg 94%
    20:00 +26°C° 2.7 mm 2 m/S 751 mmHg 94%
    21:00 +26°C° 2.7 mm 2 m/S 752 mmHg 93%
    22:00 +26°C° 3.2 mm 2 m/S 752 mmHg 93%
    23:00 +26°C° 3.2 mm 2 m/S 751 mmHg 93%

    Morgen, 17 Oktober, Mittwoch

    Zeit Temperatur Niederschläge Wind Luftdruck Luftfeuchtigkeit
    00:00 +26°C° 3.2 mm 2 m/S 751 mmHg 93%
    01:00 +26°C° 3.6 mm 2 m/S 751 mmHg 93%
    02:00 +26°C° 3.6 mm 2 m/S 751 mmHg 94%
    03:00 +26°C° 3.6 mm 2 m/S 750 mmHg 94%
    04:00 +26°C° 4.5 mm 2 m/S 750 mmHg 94%
    05:00 +26°C° 4.5 mm 2 m/S 751 mmHg 95%
    06:00 +26°C° 4.5 mm 1 m/S 751 mmHg 95%
    07:00 +26°C° 2.3 mm 2 m/S 751 mmHg 93%
    08:00 +27°C° 2.3 mm 2 m/S 752 mmHg 92%
    09:00 +28°C° 2.3 mm 2 m/S 753 mmHg 90%
    10:00 +28°C° 0.9 mm 2 m/S 752 mmHg 88%
    11:00 +29°C° 0.9 mm 1 m/S 752 mmHg 85%
    12:00 +29°C° 0.9 mm 1 m/S 751 mmHg 83%
    13:00 +29°C° 0.1 mm 2 m/S 751 mmHg 83%
    14:00 +29°C° 0.1 mm 2 m/S 750 mmHg 83%
    15:00 +29°C° 0.1 mm 2 m/S 749 mmHg 83%
    16:00 +28°C° 0.7 mm 2 m/S 750 mmHg 86%
    17:00 +27°C° 0.7 mm 2 m/S 750 mmHg 90%
    18:00 +26°C° 0.7 mm 2 m/S 750 mmHg 94%
    19:00 +26°C° 1.3 mm 2 m/S 751 mmHg 94%
    20:00 +26°C° 1.3 mm 2 m/S 751 mmHg 93%
    21:00 +26°C° 1.3 mm 2 m/S 752 mmHg 93%
    22:00 +26°C° 0.8 mm 2 m/S 752 mmHg 93%
    23:00 +26°C° 0.8 mm 2 m/S 752 mmHg 93%

    übermorgen, 18 Oktober, Donnerstag

    Zeit Temperatur Niederschläge Wind Luftdruck Luftfeuchtigkeit
    00:00 +26°C° 0.8 mm 2 m/S 752 mmHg 93%
    01:00 +25°C° 0.2 mm 2 m/S 751 mmHg 93%
    02:00 +25°C° 0.2 mm 2 m/S 750 mmHg 94%
    03:00 +25°C° 0.2 mm 2 m/S 749 mmHg 94%
    04:00 +25°C° 0 mm 2 m/S 750 mmHg 94%
    05:00 +25°C° 0 mm 2 m/S 750 mmHg 94%
    06:00 +25°C° 0 mm 2 m/S 750 mmHg 94%
    07:00 +27°C° 0.4 mm 2 m/S 751 mmHg 89%
    08:00 +28°C° 0.4 mm 2 m/S 752 mmHg 84%
    09:00 +30°C° 0.4 mm 2 m/S 752 mmHg 79%
    10:00 +30°C° 0.2 mm 2 m/S 752 mmHg 77%
    11:00 +31°C° 0.2 mm 2 m/S 751 mmHg 74%
    12:00 +31°C° 0.2 mm 2 m/S 751 mmHg 71%
    13:00 +31°C° 0.9 mm 2 m/S 750 mmHg 74%
    14:00 +31°C° 0.9 mm 2 m/S 750 mmHg 76%
    15:00 +31°C° 0.9 mm 2 m/S 749 mmHg 78%
    16:00 +29°C° 3.2 mm 2 m/S 749 mmHg 82%
    17:00 +28°C° 3.2 mm 2 m/S 750 mmHg 87%
    18:00 +27°C° 3.2 mm 3 m/S 750 mmHg 91%
    19:00 +27°C° 3.3 mm 3 m/S 751 mmHg 91%
    20:00 +27°C° 3.3 mm 3 m/S 752 mmHg 92%
    21:00 +26°C° 3.3 mm 3 m/S 752 mmHg 92%
    22:00 +26°C° 1.9 mm 3 m/S 752 mmHg 92%
    23:00 +26°C° 1.9 mm 2 m/S 752 mmHg 92%

    19 Oktober, Freitag

    Zeit Temperatur Niederschläge Wind Luftdruck Luftfeuchtigkeit
    00:00 +26°C° 1.9 mm 2 m/S 752 mmHg 93%
    01:00 +26°C° 0.5 mm 3 m/S 751 mmHg 93%
    02:00 +26°C° 0.5 mm 3 m/S 751 mmHg 93%
    03:00 +25°C° 0.5 mm 3 m/S 750 mmHg 93%
    04:00 +25°C° 0 mm 3 m/S 751 mmHg 93%
    05:00 +25°C° 0 mm 3 m/S 751 mmHg 93%
    06:00 +25°C° 0 mm 4 m/S 751 mmHg 93%
    07:00 +27°C° 0 mm 4 m/S 752 mmHg 88%
    08:00 +28°C° 0 mm 4 m/S 752 mmHg 84%
    09:00 +29°C° 0 mm 4 m/S 752 mmHg 79%
    10:00 +30°C° 0.1 mm 4 m/S 752 mmHg 77%
    11:00 +32°C° 0.1 mm 4 m/S 751 mmHg 75%
    12:00 +32°C° 0.1 mm 4 m/S 750 mmHg 73%
    13:00 +32°C° 0.3 mm 4 m/S 750 mmHg 75%
    14:00 +32°C° 0.3 mm 4 m/S 749 mmHg 76%
    15:00 +32°C° 0.3 mm 4 m/S 749 mmHg 77%
    16:00 +30°C° 1 mm 5 m/S 749 mmHg 80%
    17:00 +29°C° 1 mm 5 m/S 750 mmHg 84%
    18:00 +27°C° 1 mm 5 m/S 750 mmHg 87%
    19:00 +27°C° 0.4 mm 5 m/S 751 mmHg 87%
    20:00 +27°C° 0.4 mm 5 m/S 751 mmHg 87%
    21:00 +27°C° 0.4 mm 5 m/S 752 mmHg 87%
    22:00 +27°C° 0.1 mm 5 m/S 751 mmHg 88%
    23:00 +26°C° 0.1 mm 4 m/S 751 mmHg 89%

    20 Oktober, Samstag

    Zeit Temperatur Niederschläge Wind Luftdruck Luftfeuchtigkeit
    00:00 +26°C° 0.1 mm 4 m/S 751 mmHg 89%
    01:00 +26°C° 0.2 mm 4 m/S 750 mmHg 90%
    02:00 +26°C° 0.2 mm 4 m/S 750 mmHg 91%
    03:00 +26°C° 0.2 mm 4 m/S 750 mmHg 91%
    04:00 +26°C° 0.2 mm 4 m/S 750 mmHg 91%
    05:00 +26°C° 0.2 mm 4 m/S 751 mmHg 91%
    06:00 +26°C° 0.2 mm 4 m/S 751 mmHg 91%
    07:00 +27°C° 0 mm 4 m/S 751 mmHg 87%
    08:00 +28°C° 0 mm 4 m/S 752 mmHg 83%
    09:00 +30°C° 0 mm 4 m/S 752 mmHg 79%
    10:00 +30°C° 0 mm 4 m/S 751 mmHg 76%
    11:00 +32°C° 0 mm 4 m/S 750 mmHg 74%
    12:00 +33°C° 0 mm 4 m/S 750 mmHg 71%
    13:00 +33°C° 0.3 mm 3 m/S 749 mmHg 72%
    14:00 +31°C° 0.3 mm 3 m/S 749 mmHg 74%
    15:00 +31°C° 0.3 mm 3 m/S 748 mmHg 75%
    16:00 +30°C° 2.4 mm 3 m/S 749 mmHg 80%
    17:00 +29°C° 2.4 mm 4 m/S 749 mmHg 85%
    18:00 +27°C° 2.4 mm 4 m/S 750 mmHg 90%
    19:00 +27°C° 1.1 mm 4 m/S 750 mmHg 90%
    20:00 +27°C° 1.1 mm 4 m/S 751 mmHg 91%
    21:00 +26°C° 1.1 mm 4 m/S 751 mmHg 92%
    22:00 +26°C° 0.3 mm 4 m/S 751 mmHg 92%
    23:00 +26°C° 0.3 mm 4 m/S 751 mmHg 92%

    21 Oktober, Sonntag

    Zeit Temperatur Niederschläge Wind Luftdruck Luftfeuchtigkeit
    00:00 +26°C° 0.3 mm 4 m/S 750 mmHg 93%
    01:00 +26°C° 0.1 mm 4 m/S 750 mmHg 93%
    02:00 +26°C° 0.1 mm 4 m/S 750 mmHg 93%
    03:00 +26°C° 0.1 mm 3 m/S 750 mmHg 94%
    04:00 +26°C° 0.1 mm 4 m/S 750 mmHg 93%
    05:00 +26°C° 0.1 mm 4 m/S 750 mmHg 93%
    06:00 +26°C° 0.1 mm 4 m/S 751 mmHg 92%
    07:00 +27°C° 0.3 mm 4 m/S 751 mmHg 89%
    08:00 +28°C° 0.3 mm 5 m/S 751 mmHg 85%
    09:00 +29°C° 0.3 mm 5 m/S 752 mmHg 81%
    10:00 +30°C° 0.4 mm 6 m/S 751 mmHg 80%
    11:00 +30°C° 0.4 mm 6 m/S 750 mmHg 79%
    12:00 +30°C° 0.4 mm 6 m/S 750 mmHg 78%
    13:00 +30°C° 0.6 mm 6 m/S 749 mmHg 79%
    14:00 +30°C° 0.6 mm 6 m/S 749 mmHg 80%
    15:00 +30°C° 0.6 mm 6 m/S 748 mmHg 81%
    16:00 +29°C° 0.4 mm 5 m/S 749 mmHg 83%
    17:00 +28°C° 0.4 mm 5 m/S 749 mmHg 85%
    18:00 +27°C° 0.4 mm 5 m/S 749 mmHg 87%
    19:00 +27°C° 0.3 mm 5 m/S 750 mmHg 87%
    20:00 +27°C° 0.3 mm 5 m/S 750 mmHg 87%
    21:00 +27°C° 0.3 mm 6 m/S 751 mmHg 87%
    22:00 +27°C° 0.4 mm 6 m/S 750 mmHg 87%
    23:00 +27°C° 0.4 mm 6 m/S 750 mmHg 88%
    Mehr zeigen